[[[{"header":{"parameterUnit":"kt","parameterCategory":2,"dx":1,"dy":1,"la1":30.253999710083008,"la2":30.299108505249023,"lo1":-89.0895004272461,"lo2":-89.04439544677734,"nx":28,"ny":28,"refTime":"2022-10-19T09:00:00:Z","depth":0,"parameterNumber":1,"parameterNumberName":"U-component_of_WINDS"},"data":[4.1323,4.1361,4.1387,4.1442,4.1474,4.1516,4.1539,4.1572,4.1604,4.1657,4.1692,4.1721,4.1764,4.1812,4.1851,4.1863,4.1878,4.1872,4.1887,4.1891,4.1894,4.1896,4.1889,4.1874,4.1874,4.188,4.188,4.188,4.1321,4.1353,4.139,4.1444,4.1475,4.1496,4.154,4.1565,4.1602,4.1643,4.1679,4.1728,4.1769,4.1816,4.186,4.1878,4.1891,4.1888,4.1887,4.1894,4.1899,4.1891,4.1877,4.1877,4.1877,4.1877,4.1877,4.1877,4.1324,4.1346,4.1394,4.1434,4.1468,4.1504,4.1529,4.1566,4.1603,4.1653,4.1677,4.172,4.1765,4.1833,4.1862,4.1896,4.1904,4.1909,4.1911,4.1911,4.1908,4.1896,4.1905,4.1905,4.1905,4.1905,4.1905,0,4.1334,4.1354,4.1393,4.1438,4.1469,4.1507,4.1546,4.1563,4.1616,4.1644,4.1686,4.1716,4.1773,4.1816,4.1865,4.1895,4.192,4.1926,4.193,4.1919,4.1901,4.1911,4.1917,4.1926,4.1926,4.1926,4.1927,4.1927,4.1339,4.1362,4.1426,4.1448,4.1477,4.1513,4.1541,4.1586,4.1613,4.1668,4.1685,4.1729,4.1767,4.1832,4.1875,4.1919,4.1932,4.1932,4.1938,4.1926,4.1931,4.193,4.1932,4.193,4.1929,4.1929,4.1929,0,4.1339,4.1383,4.1427,4.1489,4.1505,4.1526,4.1579,4.1603,4.1637,4.1675,4.1686,4.1739,4.1781,4.1825,4.1882,4.1904,4.1939,4.1951,4.1923,4.1928,4.1932,4.1931,4.194,4.1943,4.1959,4.1959,4.1958,0,4.136,4.1389,4.1453,4.1477,4.151,4.1556,4.1587,4.162,4.1661,4.1691,4.1728,4.1756,4.1808,4.1842,4.1875,4.1911,4.1922,4.1941,4.195,4.1938,4.1936,4.1954,4.1954,4.1968,4.1968,4.1968,4.1968,0,4.1356,4.1425,4.1463,4.1486,4.1555,4.1572,4.1602,4.1649,4.1676,4.1717,4.1735,4.178,4.1805,4.1839,4.1881,4.1883,4.1927,4.1939,4.1946,4.1945,4.1954,4.1953,4.195,4.1968,4.1968,4.1968,4.1968,0,4.1381,4.1423,4.1472,4.1531,4.1547,4.1572,4.162,4.1653,4.17,4.1723,4.1756,4.1786,4.1823,4.1831,4.1882,4.1874,4.1896,4.1918,4.1919,4.1926,4.1934,4.1926,4.1918,4.1919,4.193,4.193,4.193,0,4.1363,4.1426,4.1466,4.1513,4.1548,4.1587,4.1616,4.1658,4.169,4.1725,4.1761,4.18,4.1816,4.1835,4.1854,4.1893,4.1903,4.1892,4.1941,4.1942,4.1927,4.192,4.1908,4.1915,4.1926,4.1927,4.1927,0,4.1356,4.1441,4.1446,4.1475,4.1538,4.1568,4.1601,4.1651,4.1671,4.1714,4.1743,4.18,4.1814,4.1845,4.1875,4.1893,4.1897,4.1906,4.1908,4.1903,4.1929,4.1917,4.1918,4.1913,4.1914,4.1914,4.1924,0,4.1382,4.142,4.1437,4.1499,4.153,4.1562,4.1611,4.1636,4.1662,4.1696,4.174,4.1787,4.1838,4.1851,4.1877,4.1904,4.1906,4.1922,4.1934,4.193,4.1934,4.1936,4.1923,4.1924,4.1925,4.1925,0,0,4.1354,4.141,4.1455,4.149,4.1518,4.156,4.159,4.1622,4.1688,4.1706,4.1713,4.18,4.1838,4.1887,4.1889,4.191,4.1919,4.192,4.1932,4.1932,4.1933,4.1937,4.1938,4.1926,4.1926,4.1927,4.1927,0,4.1375,4.1413,4.1443,4.1479,4.1534,4.1569,4.1576,4.1638,4.1661,4.1706,4.174,4.1772,4.1841,4.1877,4.1904,4.1914,4.1939,4.1926,4.1915,4.1935,4.1935,4.1935,4.1939,4.1939,4.1928,4.1928,4.1928,0,4.1376,4.1422,4.1442,4.151,4.1546,4.1582,4.1607,4.1644,4.1671,4.1716,4.1759,4.1792,4.1845,4.1885,4.1905,4.1912,4.1953,4.195,4.1948,4.1951,4.1973,4.1973,4.1972,4.1977,4.1977,4.1977,0,0,4.1387,4.1423,4.1487,4.1518,4.1538,4.1592,4.1616,4.1645,4.1692,4.171,4.1753,4.1797,4.1838,4.1863,4.1904,4.1941,4.1956,4.1954,4.1951,4.1949,4.1952,4.1973,4.1972,4.1976,4.1976,4.1976,0,0,4.1392,4.1468,4.1487,4.1528,4.1571,4.1637,4.1653,4.1677,4.1719,4.1721,4.1772,4.1786,4.1825,4.1856,4.1848,4.1909,4.1921,4.1924,4.1888,4.1886,4.1883,4.1875,4.1881,0,0,0,0,0,4.1439,4.1459,4.1475,4.1489,4.1576,4.1628,4.1639,4.1682,4.1689,4.1701,4.174,4.1765,4.1862,4.1857,4.187,4.1879,4.1975,4.1975,4.1975,4.1938,4.1935,4.1932,0,0,0,0,0,0,4.1445,4.1463,4.1474,4.154,4.156,4.1628,4.1649,4.1661,4.1688,4.1692,4.1757,4.1767,4.1805,4.1853,4.1864,4.1871,4.1878,4.1975,4.1975,4.1975,4.1937,4.1934,4.1932,0,0,0,0,0,4.145,4.1464,4.1592,4.154,4.1557,4.1619,4.1648,4.1659,4.1681,4.1743,4.1755,4.171,4.1804,4.1816,4.186,4.1865,4.187,4.1874,4.1975,4.1975,4.1975,4.1936,0,0,0,0,0,0,4.1454,4.1474,4.1597,4.1604,4.1536,4.1616,4.163,4.1656,4.1731,4.1742,4.1699,4.1701,4.1803,4.1813,4.1823,4.186,4.1864,4.1868,4.1871,4.1975,4.1975,4.1975,0,0,0,0,0,0,4.1467,4.148,4.16,4.1593,4.1599,4.1613,4.1625,4.1669,4.1731,4.1683,4.1687,4.1699,4.1789,4.1811,4.1819,4.1885,4.1859,4.1863,4.1866,4.1867,4.1975,4.1975,0,0,0,0,0,0,4.1473,4.1484,4.1592,4.1596,4.1602,4.1682,4.1652,4.1738,4.1724,4.1679,4.1724,4.1724,4.1786,4.1795,4.1816,4.1878,4.1883,4.1859,4.1862,4.1864,4.1865,0,0,0,0,0,0,0,4.1478,4.1394,4.1556,4.1599,4.1604,4.1667,4.1669,4.1671,4.1724,4.1724,4.1724,4.1724,4.1836,4.184,4.1845,4.1873,0,0,4.1859,4.1861,0,0,0,0,0,0,0,0,4.1391,4.1393,4.1556,4.1558,4.1559,4.1667,4.1669,4.167,4.1724,4.1724,4.1724,4.1724,4.1837,4.1841,4.1844,0,0,0,0,0,0,0,0,0,0,0,0,0,0,0,4.1557,4.1558,0,4.1667,4.1669,4.167,4.1724,4.1724,4.1724,4.1724,4.1838,4.1841,4.1844,0,0,0,0,0,0,0,0,0,0,0,0,0,0,0,0,0,0,0,0,0,0,0,0,0,0,0,0,0,0,0,0,0,0,0,0,0,0,0,0,0,0,0,0,0,0,0,0,0,0,0,0,0,0,0,0,0,0,0,0,0,0,0,0,0,0,0,0,0]}],[{"header":{"parameterUnit":"kt","parameterCategory":2,"dx":1,"dy":1,"la1":30.253999710083008,"la2":30.299108505249023,"lo1":-89.0895004272461,"lo2":-89.04439544677734,"nx":28,"ny":28,"refTime":"2022-10-19T09:00:00:Z","depth":0,"parameterNumber":2,"parameterNumberName":"V-component_of_WINDS"},"data":[3.2825,3.2789,3.2791,3.2749,3.2743,3.2714,3.2704,3.269,3.2679,3.2643,3.2621,3.2617,3.2605,3.2577,3.2552,3.255,3.2538,3.2524,3.2523,3.2589,3.2598,3.2606,3.2615,3.2522,3.2522,3.2454,3.2453,3.2453,3.2871,3.2866,3.2845,3.2826,3.2807,3.2822,3.2807,3.279,3.2762,3.2749,3.2728,3.2695,3.2668,3.266,3.2633,3.2613,3.2617,3.2605,3.2605,3.2602,3.2673,3.2683,3.2603,3.2603,3.2603,3.2603,3.2603,3.2603,3.2954,3.2933,3.2923,3.29,3.2891,3.2878,3.2856,3.2854,3.2832,3.2807,3.2812,3.278,3.2765,3.2733,3.2722,3.2696,3.2708,3.2694,3.269,3.2686,3.2681,3.2774,3.2691,3.2692,3.2692,3.2692,3.2692,0,3.3015,3.3018,3.2999,3.298,3.2964,3.2948,3.2935,3.2921,3.2927,3.2908,3.2881,3.2865,3.2832,3.2804,3.278,3.2771,3.278,3.2783,3.2773,3.2768,3.2767,3.2764,3.2876,3.2784,3.2785,3.2785,3.2786,3.2786,3.3096,3.3072,3.3063,3.3049,3.3043,3.302,3.3006,3.3013,3.2998,3.298,3.2959,3.2933,3.2912,3.2866,3.2859,3.2834,3.2838,3.2802,3.2834,3.2831,3.2833,3.2833,3.2829,3.2795,3.2793,3.2793,3.2792,0,3.3141,3.3145,3.3108,3.3102,3.3099,3.3072,3.3065,3.3043,3.3043,3.3012,3.3005,3.3003,3.2975,3.2975,3.2942,3.2942,3.2892,3.2899,3.2897,3.2897,3.2863,3.2864,3.2757,3.2742,3.2842,3.2841,3.2841,0,3.3211,3.3178,3.3186,3.3164,3.3128,3.3137,3.31,3.3096,3.3086,3.3061,3.3075,3.3052,3.3056,3.3032,3.3032,3.2992,3.2987,3.2983,3.2983,3.298,3.298,3.2968,3.2971,3.2988,3.2989,3.2989,3.2989,0,3.3278,3.3246,3.3211,3.3204,3.3193,3.3176,3.317,3.3159,3.3145,3.3127,3.3117,3.3095,3.3082,3.3064,3.3064,3.3086,3.3016,3.3045,3.3012,3.3012,3.2994,3.2995,3.2903,3.299,3.299,3.299,3.2991,0,3.3334,3.3319,3.3269,3.326,3.3251,3.3228,3.3208,3.3189,3.3175,3.3175,3.3161,3.3169,3.3137,3.3165,3.3119,3.3146,3.3131,3.3126,3.3124,3.3118,3.3149,3.3093,3.3008,3.2998,3.3116,3.3117,3.3118,0,3.3408,3.336,3.3368,3.332,3.3298,3.3315,3.329,3.3278,3.3276,3.3255,3.3252,3.3227,3.3249,3.3241,3.3218,3.3213,3.3178,3.3218,3.3181,3.3179,3.3181,3.3104,3.309,3.3028,3.3131,3.313,3.3129,0,3.3467,3.3456,3.3447,3.3439,3.3428,3.3409,3.338,3.3359,3.3344,3.3331,3.3304,3.3271,3.3285,3.3272,3.3277,3.3253,3.3201,3.3271,3.3271,3.3256,3.3139,3.3126,3.3115,3.3209,3.3207,3.3206,3.314,0,3.3545,3.3522,3.3499,3.3482,3.3469,3.344,3.3443,3.3428,3.3435,3.3433,3.3396,3.3386,3.3363,3.3353,3.3358,3.3306,3.3314,3.3329,3.3355,3.3305,3.3283,3.3274,3.3388,3.3388,3.3389,3.339,0,0,3.3613,3.3581,3.3591,3.3565,3.3554,3.3573,3.3541,3.3532,3.3513,3.3504,3.3519,3.347,3.3461,3.3415,3.34,3.3391,3.3381,3.3398,3.333,3.3323,3.3317,3.3293,3.3284,3.3391,3.3391,3.3391,3.3391,0,3.3642,3.3638,3.3608,3.36,3.3589,3.359,3.3583,3.3574,3.3571,3.3537,3.355,3.3528,3.349,3.3477,3.3466,3.3405,3.3415,3.3398,3.3364,3.3336,3.3329,3.3322,3.3297,3.3289,3.3393,3.3393,3.3393,0,3.3698,3.3693,3.368,3.3658,3.3651,3.3628,3.3656,3.3631,3.3613,3.3633,3.3598,3.3592,3.3577,3.3534,3.3515,3.3528,3.3445,3.3473,3.3469,3.3465,3.3439,3.343,3.3422,3.3527,3.3527,3.3528,0,0,3.3722,3.3702,3.3699,3.3665,3.3659,3.3661,3.3649,3.3654,3.3642,3.3637,3.3631,3.3617,3.3594,3.3579,3.3558,3.3511,3.3507,3.3489,3.3483,3.3478,3.3472,3.3444,3.3435,3.353,3.353,3.353,0,0,3.3733,3.3728,3.3738,3.37,3.3689,3.3682,3.366,3.3671,3.3653,3.3656,3.3662,3.3659,3.3619,3.3613,3.3637,3.3566,3.3592,3.3586,3.3571,3.3563,3.3557,3.3558,3.3662,0,0,0,0,0,3.3764,3.3729,3.3738,3.3732,3.3705,3.3677,3.3674,3.3679,3.3697,3.368,3.3676,3.3688,3.3627,3.3648,3.364,3.3613,3.3552,3.3548,3.3544,3.3514,3.3506,3.3499,0,0,0,0,0,0,3.3762,3.3755,3.3739,3.3731,3.3725,3.3679,3.371,3.3711,3.3699,3.3702,3.3689,3.3688,3.3691,3.3652,3.3645,3.3619,3.3664,3.3551,3.3547,3.3544,3.3511,3.3505,3.3499,0,0,0,0,0,3.376,3.3755,3.371,3.3731,3.3726,3.3725,3.3712,3.3712,3.3703,3.3697,3.3697,3.3709,3.369,3.3684,3.3648,3.3622,3.3669,3.3667,3.3548,3.3546,3.3543,3.3508,0,0,0,0,0,0,3.3759,3.3754,3.3709,3.3707,3.3745,3.3728,3.3725,3.3714,3.3699,3.3699,3.3718,3.372,3.3689,3.3685,3.3681,3.3623,3.3673,3.367,3.3669,3.3546,3.3544,3.3542,0,0,0,0,0,0,3.3757,3.3753,3.3708,3.3725,3.3726,3.373,3.3728,3.3697,3.3699,3.372,3.3722,3.3719,3.3694,3.3685,3.3682,3.3634,3.3676,3.3673,3.3671,3.367,3.3545,3.3543,0,0,0,0,0,0,3.3756,3.3752,3.3726,3.3726,3.3727,3.371,3.3703,3.3673,3.3716,3.372,3.372,3.3722,3.3693,3.3691,3.3682,3.3636,3.3634,3.3675,3.3674,3.3673,3.3672,0,0,0,0,0,0,0,3.3754,3.3779,3.3718,3.3727,3.3727,3.3693,3.3692,3.3692,3.3717,3.3718,3.372,3.3721,3.3689,3.3687,3.3684,3.3637,0,0,3.3676,3.3675,0,0,0,0,0,0,0,0,3.3781,3.3779,3.3718,3.3718,3.3717,3.3693,3.3692,3.3692,3.3717,3.3718,3.3719,3.372,3.3688,3.3686,3.3684,0,0,0,0,0,0,0,0,0,0,0,0,0,0,0,3.3718,3.3718,0,3.3693,3.3692,3.3692,3.3717,3.3718,3.3719,3.372,3.3688,3.3686,3.3684,0,0,0,0,0,0,0,0,0,0,0,0,0,0,0,0,0,0,0,0,0,0,0,0,0,0,0,0,0,0,0,0,0,0,0,0,0,0,0,0,0,0,0,0,0,0,0,0,0,0,0,0,0,0,0,0,0,0,0,0,0,0,0,0,0,0,0,0,0]}]]]